Bangkok, Thailand

6:50 AM ICT on January 23, 2017 (GMT +0700)
Soi Ekkarat 15/2 | | Change Station

Elev 19 ft 13.96 °N, 100.60 °E | Updated 4 minutes ago

Partly Cloudy
Partly Cloudy
79.5 °F
Feels Like 82 °F
N
1.9
Wind Variable Wind from NNE
Gusts 5.6 mph

Today
High -- | Low -- °F
--% Chance of Precip.
Yesterday
High -- | Low -- °F
Precip. -- in
Pressure 29.98 in
Visibility 6.2 miles
Clouds Few 4000 ft
Heat Index 82 °F
Dew Point 68 °F
Humidity 67%
Rainfall 0.00 in
Snow Depth Not available.
6:45 AM 6:13 PM
Waning Crescent, 23% visible
METAR VTBD 222330Z 09003KT 060V130 9999 FEW040 23/19 Q1015 NOSIG
Pressure 29.98 in
Visibility 6.2 miles
Clouds Few 4000 ft
Heat Index 82 °F
Dew Point 68 °F
Humidity 67%
Rainfall 0.00 in
Snow Depth Not available.
6:45 AM 6:13 PM
Waning Crescent, 23% visible
METAR VTBD 222330Z 09003KT 060V130 9999 FEW040 23/19 Q1015 NOSIG

Get Your Daily Forecast Email!

Thanks for signing up!

Be on the lookout for a verification email in your inbox.

You'll start receiving the daily forecast at 8 AM.

×

10-Day Weather Forecast

No radar image for this location.
×

Almanac

Astronomy

Jan. 23, 2017 Rise Set
Actual Time
Civil Twilight
Nautical Twilight
Astronomical Twilight
Moon
Length of Visible Light
Length of Day
Tomorrow will be .
, % of the Moon is Illuminated

Today's Extremes

Country Highs Country Lows

Community

WunderPhotos

Upload Photos

1,962,540 photos uploaded!

WunderBlog® & News

Nearby

Air Quality

  Air Quality AQ Index Pollutant
Not available.

Snow Depth

Station Depth Elevation

Earthquake Activity

City Distance Mag. Time & Date
Minimum magnitude displayed is 2.5.

Coastal Water Temperatures

Place Temperature

Stations

Nearby Weather Stations

Station Location Temp. Windchill Dew Point Humidity Wind Precip. Elev Updated Type